Weather History for KCEZ - September, 2011

Change the Weather History Date:

Tuesday, September 6, 2011

  Actual Average Record
Temperature  
Mean Temperature 65 °F 64 °F  
Max Temperature 75 °F 81 °F 91 °F (2012)
Min Temperature 57 °F 47 °F 36 °F (2004)
Degree Days  
Heating Degree Days 0 2  
Month to date heating degree days 11  
Since 1 July heating degree days 23  
Cooling Degree Days 0 1  
Month to date cooling degree days 9  
Year to date cooling degree days 418  
Growing Degree Days 15 (Base 50)    
Moisture  
Dew Point 53 °F    
Average Humidity 66    
Maximum Humidity 93    
Minimum Humidity 48    
Precipitation  
Precipitation 0.14 in 0.06 in 0.14 in (2011)
Month to date precipitation 0.30  
Year to date precipitation 8.74  
Sea Level Pressure  
Sea Level Pressure 30.03 in    
Wind  
Wind Speed 5 mph (South)    
Max Wind Speed 14 mph    
Max Gust Speed -    
Visibility 10 miles    
Events Rain    
T = Trace of Precipitation, MM = Missing Value Source: NWS Daily Summary

Daily Weather History Graph

Daily Weather History Graph

Search for Another Location

Airport or City:

Trip Planner

Search our weather history database for the weather conditions in past years. The results will help you decide how hot, cold, wet, or windy it might be!

Date:

Astronomy

Sep. 06, 2011 Rise Set
Actual Time 6:48 AM MDT 7:36 PM MDT
Civil Twilight 6:22 AM MDT 8:02 PM MDT
Nautical Twilight 5:51 AM MDT 8:33 PM MDT
Astronomical Twilight 5:18 AM MDT 9:05 PM MDT
Moon 4:08 PM MDT (9/6) 1:12 AM MDT (9/6)
Length of Visible Light 13h 40m
Length of Day
12h 47m
Waxing Gibbous, 71% of the Moon is Illuminated
Sep 6
Waxing Gibbous
Sep 12
Full
Sep 20
Last Quarter
Sep 27
New
Oct 3
First Quarter

Hourly Weather History & Observations

Time (MDT) Temp. Dew Point Humidity Pressure Visibility Wind Dir Wind Speed Gust Speed Precip Events Conditions
12:53 AM 69.1 °F 50.0 °F 51% 30.00 in 10.0 mi SSW 13.8 mph - N/A   Overcast
1:53 AM 66.9 °F 52.0 °F 59% 30.01 in 10.0 mi SW 9.2 mph - N/A   Overcast
2:53 AM 64.0 °F 52.0 °F 65% 29.99 in 10.0 mi Calm Calm - N/A   Overcast
3:53 AM 64.9 °F 52.0 °F 63% 29.98 in 10.0 mi Calm Calm - N/A   Overcast
4:53 AM 63.0 °F 54.0 °F 72% 29.97 in 10.0 mi Calm Calm - 0.00 in Rain Light Rain
5:53 AM 60.1 °F 53.1 °F 78% 30.00 in 10.0 mi Calm Calm - 0.00 in   Clear
6:53 AM 57.9 °F 51.1 °F 78% 30.03 in 10.0 mi Calm Calm - N/A   Partly Cloudy
7:53 AM 61.0 °F 52.0 °F 72% 30.05 in 10.0 mi East 3.5 mph - N/A   Clear
8:53 AM 64.9 °F 52.0 °F 63% 30.05 in 10.0 mi Calm Calm - N/A   Clear
9:53 AM 66.9 °F 52.0 °F 59% 30.04 in 10.0 mi SSW 10.4 mph - N/A   Scattered Clouds
10:53 AM 69.1 °F 51.1 °F 53% 30.05 in 10.0 mi SW 6.9 mph - N/A   Mostly Cloudy
11:53 AM 70.0 °F 50.0 °F 49% 30.04 in 10.0 mi SSW 4.6 mph - N/A   Mostly Cloudy
12:53 PM 64.0 °F 57.0 °F 78% 30.07 in 10.0 mi WNW 6.9 mph - 0.02 in Rain Light Rain
1:53 PM 68.0 °F 55.0 °F 63% 30.06 in 10.0 mi Calm Calm - 0.00 in   Mostly Cloudy
2:53 PM 71.1 °F 53.1 °F 53% 30.04 in 10.0 mi Calm Calm - N/A   Scattered Clouds
3:53 PM 73.0 °F 52.0 °F 48% 30.00 in 10.0 mi Variable 3.5 mph - N/A   Clear
7:53 PM 66.0 °F 53.1 °F 63% 30.02 in 10.0 mi ESE 3.5 mph - N/A   Scattered Clouds
9:53 PM 60.1 °F 55.9 °F 86% 30.09 in 7.0 mi South 8.1 mph - 0.11 in Rain Rain
10:53 PM 61.0 °F 55.9 °F 83% 30.09 in 10.0 mi ESE 4.6 mph - 0.01 in Rain Light Rain
11:53 PM 60.1 °F 57.9 °F 93% 30.07 in 10.0 mi ENE 3.5 mph - 0.00 in   Mostly Cloudy